World > North America > United States > Texas

Perrin, Texas Regional Weather

Lat: 33.03N, Lon: 98.07W
Wx Zone: TXZ101Web Search
Perrin Weather Warning NWS WEATHER ALERT FOR THE PERRIN, TX AREA - Issued: 357 PM CDT Thu Apr 15 2021 Perrin Weather Warning  

Our weather pages are very print friendly and they make great conversation starters.

Feedback


°F Click to change Perrin hourly weather to Imperial units.Click to change Perrin hourly weather to Metric units. °C
Perrin Weather Map
UTC Time: 4/16/2021, 00:06
Your Time:

Perrin, TX Regional Weather

Expires:202104160100;;614722
ASUS44 KFWD 160003
RWRTX 
NORTH TEXAS HOURLY WEATHER ROUNDUP
NATIONAL WEATHER SERVICE FORT WORTH TX
700 PM CDT THU APR 15 2021

NOTE: "FAIR" INDICATES FEW OR NO CLOUDS BELOW 12,000 FEET WITH NO
SIGNIFICANT WEATHER AND/OR OBSTRUCTIONS TO VISIBILITY.


TXZ083>090-098>101-113>116-127>130-139>142-154-155-160100-
WESTERN NORTH TEXAS
  
CITY           SKY/WX    TMP DP  RH WIND       PRES   REMARKS
WICHITA FALLS  LGT RAIN  52  50  93 NE7       29.95R FOG              
6HR MIN TEMP:  51; 6HR MAX TEMP:  56; 6HR PCP:  0.28;                

WF-KICKAPOO    DRIZZLE   52  49  92 E7        29.96R                  
6HR MIN TEMP:  51; 6HR MAX TEMP:  55; 6HR PCP:  0.34;                

VERNON         CLOUDY    51  50  95 E12       29.96S                  
6HR MIN TEMP:  51; 6HR MAX TEMP:  54; 6HR PCP:  0.19;                

ABILENE        CLOUDY    55  53  93 E15       29.89S                  
6HR MIN TEMP:  55; 6HR MAX TEMP:  59; 6HR PCP:  0.21;                

ABILENE-DYESS  CLOUDY    55  52  88 E14G20    29.88F                  
6HR MIN TEMP:  55; 6HR MAX TEMP:  58; 6HR PCP:  0.19;                

BRECKENRIDGE   CLOUDY    55  55 100 MISG      29.91F THUNDER          
6HR MIN TEMP:  55; 6HR MAX TEMP:  56; 6HR PCP:  0.94;                

CISCO          CLOUDY    52  52 100 E9        29.89F                  
EASTLAND         N/A     52 N/A N/A E7        29.91F                  
6HR MIN TEMP:  51; 6HR MAX TEMP:  56; 6HR PCP:  0.66;                

RANGER         LGT RAIN  52  52 100 E7        29.92F                  
6HR MIN TEMP:  52; 6HR MAX TEMP:  55; 6HR PCP:  0.71;                

MINERAL WELLS  LGT RAIN  54  53  97 E5        29.92F                  
6HR MIN TEMP:  53; 6HR MAX TEMP:  55; 6HR PCP:  0.73;                

STEPHENVILLE   CLOUDY    55  53  94 NE8       29.96F                  
6HR MIN TEMP:  55; 6HR MAX TEMP:  59; 6HR PCP:  0.82;                

COMANCHE       HVY RAIN  55  55 100 E8        29.92S                  
6HR MIN TEMP:  55; 6HR MAX TEMP:  56; 6HR PCP:  0.95;                

COLEMAN        CLOUDY    56  55  95 E12       29.88F                  
6HR MIN TEMP:  56; 6HR MAX TEMP:  58; 6HR PCP:  0.37;                

BRADY          CLOUDY    57  57 100 E8        29.88S FOG              
$$


SKY/WX - Weather  TMP - Temperature  DP - Dew Point  RH - Relative Humidity
WIND - Wind Direction/Speed PRES - Barometric Pressure VSB - Visibility
WCI - Wind Chill Index E13G22 Wind - East Wind 13 mph/Gusts of 22 mph